Adak, AK

9:21 AM HST on February 25, 2017 (GMT -1000)
Eareckson Air Station

Weather History for PASY - March, 2013

Change the Weather History Date:

Monday, March 25, 2013

  Actual Average Record
Temperature  
Mean Temperature 36 °F -  
Max Temperature 39 °F 34 °F 41 °F (1998)
Min Temperature 33 °F 28 °F 15 °F (1977)
Degree Days  
Heating Degree Days 29    
Moisture  
Dew Point 33 °F    
Average Humidity 92    
Maximum Humidity 100    
Minimum Humidity 75    
Precipitation  
Precipitation 0.00 in - - ()
Sea Level Pressure  
Sea Level Pressure 29.84 in    
Wind  
Wind Speed 16 mph (North)    
Max Wind Speed 28 mph    
Max Gust Speed 32 mph    
Visibility 10 miles    
Events Snow    
Averages and records for this station are not official NWS values.
T = Trace of Precipitation, MM = Missing Value Source: NWS Daily Summary

Daily Weather History Graph

Daily Weather History Graph

Search for Another Location

Airport or City:

Trip Planner

Search our weather history database for the weather conditions in past years. The results will help you decide how hot, cold, wet, or windy it might be!

Date:

Astronomy

Mar. 24, 2013 Rise Set
Actual Time 9:15 AM HDT 9:45 PM HDT
Civil Twilight 8:40 AM HDT 10:19 PM HDT
Nautical Twilight 7:59 AM HDT 11:00 PM HDT
Astronomical Twilight 7:16 AM HDT 11:44 PM HDT
Moon 8:31 PM HDT 8:13 AM HDT
Length of Visible Light 13h 38m
Length of Day
12h 29m
Waxing Gibbous, 97% of the Moon is Illuminated
Mar 25
Waxing Gibbous
Mar 27
Full
Apr 2
Last Quarter
Apr 10
New
Apr 18
First Quarter

Hourly Weather History & Observations

Time (HDT) Temp. Windchill Dew Point Humidity Pressure Visibility Wind Dir Wind Speed Gust Speed Precip Events Conditions
12:56 AM 34.0 °F 25.0 °F 33.1 °F 96% 29.75 in 9.0 mi NW 12.7 mph - N/A Snow Light Snow
1:56 AM 34.0 °F 23.8 °F 33.1 °F 96% 29.77 in 9.0 mi WNW 16.1 mph - N/A Snow Light Snow
2:56 AM 34.0 °F 23.0 °F 33.1 °F 96% 29.78 in 10.0 mi WNW 18.4 mph - N/A   Overcast
3:56 AM 34.0 °F 22.7 °F 33.1 °F 96% 29.80 in 10.0 mi WNW 19.6 mph - N/A   Overcast
4:56 AM 34.0 °F 22.4 °F 33.1 °F 96% 29.81 in 10.0 mi WNW 20.7 mph - N/A   Overcast
5:56 AM 34.0 °F 22.7 °F 33.1 °F 96% 29.83 in 10.0 mi WNW 19.6 mph - N/A   Overcast
6:05 AM 33.8 °F 22.8 °F 33.8 °F 100% 29.82 in 10.0 mi WNW 18.4 mph - N/A   Overcast
6:37 AM 33.8 °F 22.5 °F 33.8 °F 100% 29.83 in 10.0 mi NW 19.6 mph - N/A   Overcast
6:51 AM 33.8 °F 22.5 °F 33.8 °F 100% 29.84 in 10.0 mi NW 19.6 mph - N/A   Overcast
6:56 AM 34.0 °F 23.4 °F 33.1 °F 96% 29.84 in 10.0 mi NW 17.3 mph - N/A   Overcast
7:48 AM 33.8 °F 23.5 °F 33.8 °F 100% 29.85 in 10.0 mi NW 16.1 mph - N/A   Overcast
7:56 AM 34.0 °F 24.6 °F 33.1 °F 96% 29.86 in 10.0 mi NW 13.8 mph - N/A   Overcast
8:05 AM 33.8 °F 23.2 °F 33.8 °F 100% 29.86 in 10.0 mi WNW 17.3 mph - N/A   Overcast
8:45 AM 33.8 °F 23.2 °F 33.8 °F 100% 29.88 in 6.2 mi WNW 17.3 mph - N/A Snow Light Snow
8:56 AM 33.1 °F 22.6 °F 32.0 °F 96% 29.88 in 5.0 mi NW 16.1 mph - N/A Snow Light Snow
9:45 AM 33.8 °F 23.5 °F 33.8 °F 100% 29.90 in 10.0 mi WNW 16.1 mph - N/A   Overcast
9:56 AM 34.0 °F 23.0 °F 33.1 °F 96% 29.91 in 10.0 mi WNW 18.4 mph - N/A   Overcast
10:06 AM 33.8 °F 23.5 °F 33.8 °F 100% 29.90 in 10.0 mi WNW 16.1 mph - N/A   Overcast
10:29 AM 33.8 °F 23.5 °F 33.8 °F 100% 29.91 in 10.0 mi WNW 16.1 mph - N/A   Overcast
10:43 AM 35.6 °F 25.5 °F 33.8 °F 93% 29.92 in 10.0 mi WNW 17.3 mph - N/A   Overcast
10:56 AM 35.1 °F 24.1 °F 34.0 °F 96% 29.93 in 10.0 mi WNW 19.6 mph - N/A   Overcast
11:10 AM 35.6 °F 24.5 °F 33.8 °F 93% 29.93 in 10.0 mi WNW 20.7 mph - N/A   Overcast
11:37 AM 35.6 °F 25.5 °F 33.8 °F 93% 29.92 in 6.2 mi NW 17.3 mph - N/A   Overcast
11:46 AM 35.6 °F 24.8 °F 35.6 °F 100% 29.92 in 10.0 mi WNW 19.6 mph - N/A   Overcast
11:56 AM 36.0 °F 26.7 °F 35.1 °F 97% 29.93 in 10.0 mi NW 15.0 mph - N/A   Mostly Cloudy
12:43 PM 35.6 °F 25.9 °F 33.8 °F 93% 29.92 in 10.0 mi NW 16.1 mph - N/A   Mostly Cloudy
12:56 PM 37.0 °F 28.5 °F 34.0 °F 89% 29.92 in 10.0 mi NW 13.8 mph - N/A   Mostly Cloudy
1:12 PM 37.4 °F 28.5 °F 33.8 °F 87% 29.92 in 10.0 mi NW 15.0 mph - N/A   Partly Cloudy
1:46 PM 37.4 °F 28.5 °F 33.8 °F 87% 29.92 in 10.0 mi NW 15.0 mph - N/A   Mostly Cloudy
1:56 PM 37.0 °F 28.9 °F 33.1 °F 86% 29.93 in 10.0 mi NW 12.7 mph - N/A   Mostly Cloudy
2:56 PM 39.0 °F 31.0 °F 35.1 °F 86% 29.91 in 10.0 mi NW 13.8 mph - N/A   Mostly Cloudy
3:34 PM 37.4 °F 29.3 °F 33.8 °F 87% 29.90 in 10.0 mi North 12.7 mph - N/A   Overcast
3:56 PM 37.0 °F 28.5 °F 34.0 °F 89% 29.90 in 10.0 mi North 13.8 mph - N/A   Overcast
4:20 PM 37.4 °F 30.3 °F 33.8 °F 87% 29.90 in 6.2 mi North 10.4 mph - N/A   Overcast
4:24 PM 35.6 °F 29.2 °F 33.8 °F 93% 29.90 in 10.0 mi North 8.1 mph - N/A   Overcast
4:39 PM 37.4 °F 30.3 °F 33.8 °F 87% 29.89 in 10.0 mi North 10.4 mph - N/A   Overcast
4:48 PM 37.4 °F 30.3 °F 33.8 °F 87% 29.89 in 10.0 mi North 10.4 mph - N/A   Overcast
4:56 PM 37.0 °F 29.3 °F 33.1 °F 86% 29.89 in 10.0 mi North 11.5 mph - N/A   Mostly Cloudy
5:10 PM 37.4 °F 29.8 °F 32.0 °F 81% 29.89 in 10.0 mi North 11.5 mph - N/A   Scattered Clouds
5:56 PM 37.9 °F 31.5 °F 32.0 °F 79% 29.88 in 10.0 mi NNE 9.2 mph - N/A   Scattered Clouds
6:06 PM 37.4 °F 31.4 °F 30.2 °F 75% 29.87 in 10.0 mi North 8.1 mph - N/A   Mostly Cloudy
6:34 PM 37.4 °F 30.8 °F 32.0 °F 81% 29.86 in 10.0 mi North 9.2 mph - N/A   Overcast
6:52 PM 35.6 °F 29.2 °F 32.0 °F 87% 29.85 in 10.0 mi NE 8.1 mph - N/A   Overcast
6:56 PM 37.0 °F 30.4 °F 32.0 °F 82% 29.85 in 10.0 mi NE 9.2 mph - N/A   Overcast
7:35 PM 35.6 °F 26.2 °F 33.8 °F 93% 29.82 in 10.0 mi NE 15.0 mph - N/A   Overcast
7:53 PM 35.6 °F 25.9 °F 33.8 °F 93% 29.81 in 6.2 mi ENE 16.1 mph - N/A Snow Light Snow
7:56 PM 35.1 °F 25.2 °F 33.1 °F 92% 29.81 in 9.0 mi ENE 16.1 mph - N/A   Overcast
8:06 PM 35.6 °F 26.2 °F 33.8 °F 93% 29.80 in 10.0 mi ENE 15.0 mph - N/A   Overcast
8:38 PM 35.6 °F 25.5 °F 33.8 °F 93% 29.79 in 10.0 mi ENE 17.3 mph - N/A   Scattered Clouds
8:56 PM 35.1 °F 24.8 °F 32.0 °F 89% 29.78 in 10.0 mi ENE 17.3 mph - N/A   Scattered Clouds
9:09 PM 35.6 °F 25.5 °F 33.8 °F 93% 29.77 in 10.0 mi ENE 17.3 mph 23.0 mph N/A   Mostly Cloudy
9:28 PM 33.8 °F 22.2 °F 32.0 °F 93% 29.74 in 10.0 mi ENE 20.7 mph 24.2 mph N/A   Scattered Clouds
9:54 PM 33.8 °F 22.5 °F 32.0 °F 93% 29.74 in 10.0 mi ENE 19.6 mph - N/A   Mostly Cloudy
9:56 PM 35.1 °F 23.8 °F 32.0 °F 89% 29.74 in 10.0 mi ENE 20.7 mph - N/A   Mostly Cloudy
10:08 PM 33.8 °F 22.8 °F 30.2 °F 87% 29.73 in 10.0 mi ENE 18.4 mph - N/A   Mostly Cloudy
10:15 PM 33.8 °F 22.8 °F 32.0 °F 93% 29.73 in 10.0 mi ENE 18.4 mph - N/A   Mostly Cloudy
10:46 PM 33.8 °F 21.6 °F 32.0 °F 93% 29.72 in 10.0 mi ENE 23.0 mph 27.6 mph N/A   Overcast
10:53 PM 33.8 °F 22.2 °F 32.0 °F 93% 29.72 in 10.0 mi ENE 20.7 mph - N/A   Overcast
10:56 PM 34.0 °F 20.8 °F 32.0 °F 92% 29.72 in 9.0 mi East 27.6 mph 32.2 mph N/A   Overcast
11:03 PM 33.8 °F 22.2 °F 32.0 °F 93% 29.71 in 6.2 mi ENE 20.7 mph 32.2 mph N/A Snow Light Snow
11:56 PM 34.0 °F 21.8 °F 32.0 °F 92% 29.68 in 10.0 mi ENE 23.0 mph - N/A   Overcast